BREEZE-M R/B, 42935

Orbit data source: Space-Track

BREEZE-M R/B, 42935 is space debris in HEO originally from a launch on Mon, 11 Sep 2017 UTC launched from the Tyuratam Missile And Space Complex (TTMTR). Debris objects in space refer to the collection of defunct objects orbiting the Earth. Examples of debris include non-operational satellites, rocket bodies, and fragments generated from explosions, collisions, or faulty payload assembly.

Loading next visibility...
Identifier
42935, 2017-053B
Orbit
HEO
Country
Flag of CISCIS
Related business
Manufacturer
Khrunichev
Mission
Spacecraft
Bus & Motor
BRIZ, Unknown motor
Mass
~1,600 kg wet, 1,600 kg dry
Launch date (UTC)
2017-09-11 (8 years ago)
Launch vehicle
Unknown
Launch site
Tyuratam Missile And Space Complex (TTMTR)
Object type
Payload
Rocket body
Debris
Shape & HBR
Cyl, 2.0 m
Radar Cross Section
15.135 m², Large (>1 m²)

Expand to show TLE details & history
Last TLE update: 2 days ago

TLE from 2 days ago
0 BREEZE-M R/B
1 42935U 17053B   26061.04883917 -.00000179  00000-0  00000-0 0  9992
2 42935  23.1803  73.2043 5933267 290.3964  17.3341  2.19138014 67808
Epoch: 2026-03-02T01:10Z
TLE epoch observation values (Epoch: 2026-03-02T01:10:19.704Z)
Latitude
-0.0002°
Longitude
-104.13539°
Altitude
7,062.006 km
Speed
6.587 km/s
True Right ascension
04h 53m 10s
True Declination
0° 00' 01"
Sunlit
Object was in daylight at epoch
Visualization orbit readout
Latitude
Unknown
Longitude
Unknown
Altitude
Unknown
Speed
Unknown
Apparent Right ascension
Unknown
Apparent Declination
Unknown
Sunlit
N/A
Visualization observer readout
Local Sidereal Time
22:09:58
Azimuth
Unknown
Elevation
Unknown
Doppler factor
Unknown
Orbital elements
Apogee altitude
33,518.844 km
Perigee altitude
3,804.983 km
Semi-major axis
25,040.05 km
Eccentricity
0.59333
Inclination
23.1803°
RAAN
73.2043°
Arg. of periapsis
290.3964°
True anomaly
69.29721°
Mean anomaly
17.3341°
Eccentric anomaly
38.49357°
Mean motion
0.54776 °/min
Orbital period
657.22 mins
BSTAR
0
Loading maneuver chart data...
Computing Atmospheric mass density...
Loading historical data...
Loading historical data...
Loading historical data...
Loading historical data...
Loading historical data...
Loading historical data...
Loading historical data...
Other satellites on launch #53 in the year 2017 (2017-09-11 UTC)

Documentation

Showing up to 5 results
|